FW8148 Weather Reports


Display with metric or nautical units.
time (UTC)temp
F
wind
direction
speed
MPH
gust
MPH
rain 1hr
in
rain 24hr
in
rain mn
in
humidity
%
barometer
mb
20260507113603 60 102 1.0 3.0 0.00 0.00 0.00 59 1015.1
20260507112703 61 50 1.0 3.0 0.00 0.00 0.00 58 1015.1
20260507111803 59 28 0.0 2.0 0.00 0.00 0.00 64 1015.2
20260507110903 58 107 0.0 2.0 0.00 0.00 0.00 61 1015.3
20260507110003 59 56 0.0 3.0 0.00 0.00 0.00 63 1015.3
20260507105619 59 58 1.0 3.0 0.00 0.00 0.00 61 1015.3
20260507104503 61 78 1.0 4.0 0.00 0.00 0.00 58 1015.1
20260507103603 61 64 1.0 4.0 0.00 0.00 0.00 60 1015.3
20260507102917 60 55 1.0 3.0 0.00 0.00 0.00 64 1015.1
20260507101803 58 43 1.0 4.0 0.00 0.00 0.00 67 1015.3
20260507100903 59 45 1.0 4.0 0.00 0.00 0.00 64 1015.1
20260507100008 59 29 1.0 6.0 0.00 0.00 0.00 61 1015.2
20260507095403 58 33 2.0 6.0 0.00 0.00 0.00 65 1015.3
20260507094508 58 38 1.0 6.0 0.00 0.00 0.00 69 1015.1
20260507093604 58 36 1.0 4.0 0.00 0.00 0.00 71 1015.4
20260507092703 58 40 1.0 4.0 0.00 0.00 0.00 73 1015.2
20260507092018 57 52 1.0 3.0 0.00 0.00 0.00 73 1015.2
20260507090903 56 42 1.0 3.0 0.00 0.00 0.00 78 1015.2
20260507090004 55 49 1.0 3.0 0.00 0.00 0.00 79 1015.1
20260507085403 56 54 1.0 3.0 0.00 0.00 0.00 80 1015.1
20260507084503 54 34 1.0 3.0 0.00 0.00 0.00 80 1015.0
20260507083603 54 66 1.0 2.0 0.00 0.00 0.00 82 1015.2
20260507082703 53 44 0.0 2.0 0.00 0.00 0.00 84 1015.1
20260507082017 52 22 1.0 3.0 0.00 0.00 0.00 84 1015.0
20260507080903 52 16 0.0 4.0 0.00 0.00 0.00 84 1015.0
20260507080004 52 31 0.0 1.0 0.00 0.00 0.00 85 1015.0
20260507075403 52 15 0.0 2.0 0.00 0.00 0.00 87 1015.0
20260507074503 51 30 1.0 3.0 0.00 0.00 0.00 87 1014.9
20260507073603 51 35 0.0 2.0 0.00 0.00 0.00 87 1014.8
20260507072703 50 34 1.0 2.0 0.00 0.00 0.00 88 1014.8
20260507071803 50 26 1.0 3.0 0.00 0.00 0.00 88 1014.6
20260507070903 50 42 0.0 3.0 0.00 0.00 0.00 90 1014.6
20260507070011 50 37 1.0 3.0 0.00 0.00 0.00 90 1014.7
20260507065403 50 39 1.0 2.0 0.00 0.00 0.00 91 1014.8
20260507064504 49 40 0.0 1.0 0.00 0.00 0.00 92 1014.6
20260507063818 49 46 0.0 1.0 0.00 0.00 0.00 92 1014.6
20260507062703 49 26 0.0 1.0 0.00 0.00 0.00 93 1014.6
20260507062016 49 0 0.0 0.0 0.00 0.00 0.00 94 1014.6
20260507060903 48 0 0.0 0.0 0.00 0.00 0.00 95 1014.5
20260507060003 48 0 0.0 0.0 0.00 0.01 0.00 96 1014.4
20260507055617 48 0 0.0 0.0 0.00 0.01 0.00 96 1014.3
20260507054503 47 0 0.0 0.0 0.00 0.01 0.00 96 1014.3
20260507053817 47 0 0.0 0.0 0.00 0.01 0.00 96 1014.3
20260507052703 47 0 0.0 0.0 0.00 0.01 0.00 97 1014.2
20260507051803 47 0 0.0 0.0 0.00 0.01 0.00 97 1014.0
20260507051118 47 0 0.0 0.0 0.00 0.01 0.00 97 1013.9
20260507050003 46 0 0.0 0.0 0.00 0.01 0.00 97 1013.9
20260507045405 46 0 0.0 0.0 0.00 0.01 0.00 97 1013.6
20260507044718 46 0 0.0 0.0 0.00 0.01 0.00 97 1013.6
20260507043603 46 0 0.0 0.0 0.00 0.01 0.00 97 1013.5
20260507042705 47 0 0.0 0.0 0.00 0.01 0.00 97 1013.3
20260507041803 47 0 0.0 0.0 0.00 0.01 0.00 97 1013.5
20260507040903 47 0 0.0 0.0 0.00 0.01 0.00 97 1013.2
20260507040003 47 0 0.0 0.0 0.00 0.02 0.00 97 1013.3
20260507035403 47 0 0.0 0.0 0.00 0.02 0.00 97 1013.5
20260507034717 47 0 0.0 0.0 0.00 0.02 0.00 96 1013.1
20260507033603 47 0 0.0 0.0 0.00 0.03 0.00 96 1013.1
20260507032703 47 0 0.0 0.0 0.00 0.03 0.00 96 1013.0
20260507031803 47 0 0.0 0.0 0.00 0.03 0.00 96 1013.1
20260507030903 48 0 0.0 0.0 0.00 0.03 0.00 96 1013.2
20260507030003 48 0 0.0 0.0 0.00 0.04 0.00 96 1013.3
20260507025403 48 0 0.0 0.0 0.00 0.04 0.00 96 1013.2
20260507024503 48 0 0.0 0.0 0.00 0.04 0.00 96 1013.5
20260507023603 48 0 0.0 0.0 0.00 0.05 0.00 96 1013.2
20260507022703 48 0 0.0 0.0 0.00 0.05 0.00 96 1013.5
20260507022019 48 0 0.0 0.0 0.00 0.05 0.00 96 1013.1
20260507020903 48 0 0.0 0.0 0.00 0.05 0.00 95 1013.1
20260507020003 48 0 0.0 0.0 0.00 0.05 0.00 95 1013.1
20260507015618 48 0 0.0 0.0 0.00 0.05 0.00 95 1013.0
20260507014503 48 0 0.0 0.0 0.00 0.05 0.00 95 1012.9
20260507013603 48 0 0.0 0.0 0.00 0.05 0.00 95 1013.0
20260507012703 48 0 0.0 0.0 0.00 0.05 0.00 95 1013.1
20260507011803 48 0 0.0 0.0 0.00 0.06 0.00 95 1012.9
20260507010903 49 0 0.0 0.0 0.00 0.06 0.00 95 1012.9
20260507010217 49 0 0.0 0.0 0.00 0.06 0.00 95 1012.7
20260507005403 49 0 0.0 0.0 0.00 0.06 0.00 95 1012.8
20260507004503 49 32 0.0 1.0 0.00 0.06 0.00 95 1012.8
20260507003603 49 33 0.0 1.0 0.00 0.06 0.00 95 1012.9
20260507002703 49 32 0.0 1.0 0.00 0.06 0.00 96 1012.7
20260507001803 49 0 0.0 0.0 0.00 0.07 0.00 96 1012.7
20260507001117 49 0 0.0 0.0 0.00 0.07 0.00 96 1012.8
20260507000008 49 0 0.0 0.0 0.00 0.08 0.00 96 1012.8
20260506235403 49 0 0.0 0.0 0.00 0.08 0.00 96 1012.7
20260506234718 49 0 0.0 0.0 0.00 0.08 0.00 96 1012.7
20260506233603 49 0 0.0 0.0 0.00 0.08 0.00 96 1012.7
20260506232917 49 0 0.0 0.0 0.00 0.08 0.00 96 1012.7
20260506232018 49 0 0.0 0.0 0.00 0.08 0.00 95 1012.7
20260506230903 49 33 0.0 1.0 0.00 0.08 0.00 95 1012.7
20260506230003 49 10 0.0 1.0 0.00 0.08 0.00 95 1012.6
20260506225403 49 10 0.0 1.0 0.00 0.08 0.00 96 1012.6
20260506224503 49 0 0.0 0.0 0.00 0.08 0.00 96 1012.7
20260506223817 49 0 0.0 0.0 0.00 0.08 0.00 96 1012.7
20260506222703 49 0 0.0 0.0 0.00 0.08 0.00 96 1012.4
20260506221803 49 0 0.0 0.0 0.00 0.08 0.00 96 1012.5
20260506220903 49 0 0.0 0.0 0.00 0.08 0.00 96 1012.4
20260506220005 49 0 0.0 0.0 0.00 0.08 0.00 96 1012.3
20260506215403 49 0 0.0 0.0 0.00 0.09 0.08 96 1012.4
20260506214503 49 0 0.0 0.0 0.00 0.09 0.08 96 1012.2
20260506213603 49 0 0.0 0.0 0.00 0.09 0.08 96 1012.2
20260506212703 49 0 0.0 0.0 0.00 0.09 0.08 96 1012.3
20260506211803 49 0 0.0 0.0 0.00 0.09 0.08 96 1012.4
20260506210903 49 0 0.0 0.0 0.00 0.10 0.08 96 1012.4
20260506210003 49 0 0.0 0.0 0.00 0.10 0.08 96 1012.4
20260506205403 49 0 0.0 0.0 0.00 0.11 0.08 96 1012.3
20260506204723 49 0 0.0 0.0 0.00 0.11 0.08 96 1012.2
20260506203606 49 0 0.0 0.0 0.00 0.12 0.08 95 1011.9
20260506202703 49 0 0.0 0.0 0.00 0.12 0.08 95 1012.2
20260506201803 49 0 0.0 0.0 0.00 0.12 0.08 95 1011.7
20260506200903 49 250 0.0 2.0 0.00 0.12 0.08 94 1012.0
20260506200003 49 0 0.0 1.0 0.00 0.13 0.08 94 1011.5
20260506195403 50 262 0.0 2.0 0.00 0.13 0.08 94 1011.8
20260506194503 50 264 0.0 2.0 0.00 0.13 0.08 94 1011.6
20260506193818 50 227 0.0 2.0 0.00 0.13 0.08 94 1011.6
20260506192703 50 159 0.0 1.0 0.00 0.13 0.08 95 1011.3
20260506191803 50 165 0.0 1.0 0.00 0.13 0.08 95 1011.1
20260506190903 50 315 0.0 2.0 0.00 0.13 0.08 95 1011.3
20260506190008 50 64 0.0 1.0 0.00 0.13 0.08 95 1011.1
20260506185403 50 59 0.0 1.0 0.00 0.13 0.08 94 1011.0
20260506184718 50 348 0.0 2.0 0.00 0.14 0.08 94 1011.1
20260506183603 50 28 0.0 2.0 0.00 0.14 0.08 92 1010.9
20260506182919 50 44 0.0 2.0 0.00 0.14 0.08 91 1010.8
20260506181803 51 46 0.0 2.0 0.00 0.15 0.08 89 1010.7
20260506180903 51 32 1.0 3.0 0.00 0.16 0.08 89 1010.6
20260506180008 51 22 1.0 3.0 0.00 0.16 0.08 87 1010.6
20260506175403 52 28 1.0 4.0 0.00 0.17 0.08 88 1010.4
20260506174503 52 21 0.0 2.0 0.00 0.18 0.08 88 1010.4
20260506173603 52 6 0.0 2.0 0.00 0.18 0.08 88 1010.1
20260506172703 52 294 0.0 1.0 0.00 0.19 0.08 88 1010.1
20260506171803 52 26 0.0 2.0 0.00 0.19 0.08 88 1010.2
20260506170903 52 42 1.0 3.0 0.00 0.19 0.08 86 1010.2
20260506170006 53 38 1.0 4.0 0.00 0.19 0.08 83 1010.3
20260506165403 53 43 1.0 3.0 0.00 0.20 0.08 80 1010.0
20260506164717 53 48 1.0 4.0 0.00 0.20 0.08 80 1010.0
20260506163603 53 37 1.0 4.0 0.00 0.20 0.08 79 1009.8
20260506162703 53 39 1.0 2.0 0.00 0.20 0.08 78 1009.9
20260506161803 54 41 1.0 2.0 0.00 0.20 0.08 77 1009.8
20260506160905 54 52 1.0 4.0 0.00 0.20 0.08 77 1009.8
20260506160222 54 42 0.0 2.0 0.00 0.20 0.08 79 1009.8
20260506155403 54 42 0.0 1.0 0.00 0.20 0.08 79 1009.8
20260506154503 54 27 0.0 2.0 0.00 0.21 0.08 78 1009.9
20260506153603 54 32 0.0 2.0 0.00 0.21 0.08 77 1009.7
20260506152917 55 37 1.0 2.0 0.00 0.22 0.08 75 1009.8
20260506151803 56 40 1.0 3.0 0.00 0.22 0.08 74 1009.8
20260506150904 56 39 0.0 2.0 0.00 0.22 0.08 73 1009.7
20260506150224 56 43 0.0 2.0 0.00 0.22 0.08 73 1009.5
20260506145403 56 60 1.0 3.0 0.00 0.22 0.08 73 1009.7
20260506144503 56 25 0.0 2.0 0.00 0.23 0.08 72 1009.8
20260506143603 56 33 0.0 4.0 0.00 0.24 0.08 71 1009.7
20260506142704 56 53 1.0 4.0 0.00 0.25 0.08 73 1009.6
20260506141803 56 31 1.0 3.0 0.00 0.26 0.08 76 1009.7
20260506140903 55 10 0.0 3.0 0.00 0.26 0.08 77 1009.6
20260506140008 54 44 1.0 3.0 0.00 0.26 0.08 77 1009.7
20260506135403 54 31 0.0 3.0 0.00 0.26 0.08 78 1009.7
20260506134505 54 45 0.0 4.0 0.00 0.27 0.08 78 1009.8
20260506133603 54 42 1.0 4.0 0.00 0.27 0.08 76 1009.8
20260506132705 54 34 1.0 2.0 0.00 0.27 0.08 76 1009.9
20260506131803 55 45 1.0 3.0 0.00 0.27 0.08 75 1009.7
20260506131117 56 44 1.0 3.0 0.00 0.27 0.08 74 1009.8
20260506130008 57 42 1.0 6.0 0.00 0.27 0.08 73 1009.5
20260506125405 57 42 1.0 3.0 0.00 0.27 0.08 69 1009.6
20260506124503 58 36 1.0 6.0 0.00 0.27 0.08 69 1009.4
20260506123603 58 35 1.0 3.0 0.00 0.27 0.08 69 1009.1
20260506122703 57 43 1.0 4.0 0.00 0.27 0.08 71 1009.1
20260506121803 59 50 1.0 3.0 0.00 0.27 0.08 67 1009.3
20260506120903 57 31 2.0 8.0 0.00 0.27 0.08 68 1009.3
20260506120003 57 37 2.0 4.0 0.00 0.27 0.08 68 1009.2
20260506115618 56 31 2.0 4.0 0.00 0.27 0.08 68 1009.2
20260506114503 56 20 2.0 6.0 0.00 0.27 0.08 66 1009.3